SWA6132 KCMH-KDCA

Flight info

Callsign SWA6132
Flight time 0h 48m
Altitude 35000
Route OWEBO AIR BUCKO FRDMM6
Aircraft B737/M-SDE2E3GIJ4RWZ/LB1D1

Departure

Time 2026-05-08 09:56
Airport John Glenn Columbus International Airport (KCMH)

Arrival

Time 2026-05-08 10:44
Airport Ronald Reagan Washington National Airport (KDCA)
Time Latitude Longitude Altitude Speed Heading
2026-05-08 09:49 39.99700 -82.88004 812 ft 0 kts 284°
2026-05-08 09:53 39.99708 -82.88023 820 ft 0 kts 329°
2026-05-08 09:53 39.99717 -82.88016 819 ft 3 kts 49°
2026-05-08 09:53 39.99724 -82.87977 821 ft 5 kts 87°
2026-05-08 09:54 39.99726 -82.87926 822 ft 6 kts 73°
2026-05-08 09:54 39.99781 -82.87906 822 ft 16 kts
2026-05-08 09:54 39.99899 -82.87900 821 ft 18 kts 350°
2026-05-08 09:54 40.00027 -82.87946 818 ft 22 kts
2026-05-08 09:55 40.00165 -82.88079 819 ft 33 kts 274°
2026-05-08 09:55 40.00188 -82.88475 825 ft 99 kts 274°
2026-05-08 09:55 40.00260 -82.89765 831 ft 182 kts 274°
2026-05-08 09:55 40.00360 -82.91625 1377 ft 223 kts 275°
2026-05-08 09:56 40.00892 -82.93626 1882 ft 248 kts 300°
2026-05-08 09:56 40.02118 -82.95032 2519 ft 225 kts 327°
2026-05-08 09:56 40.03807 -82.95457 2207 ft 268 kts
2026-05-08 09:56 40.05459 -82.94363 2339 ft 276 kts 45°
2026-05-08 09:57 40.05943 -82.89478 2422 ft 277 kts 116°
2026-05-08 09:57 40.05077 -82.87264 3084 ft 277 kts 122°
2026-05-08 09:57 40.04060 -82.85059 3824 ft 290 kts 129°
2026-05-08 09:58 40.02751 -82.83090 4425 ft 284 kts 143°
2026-05-08 09:58 40.01100 -82.81713 4970 ft 281 kts 164°
2026-05-08 09:58 39.99221 -82.81192 5496 ft 275 kts 175°
2026-05-08 09:58 39.97423 -82.80174 5989 ft 293 kts 143°
2026-05-08 09:59 39.96265 -82.77992 6453 ft 298 kts 107°
2026-05-08 09:59 39.96197 -82.75334 6967 ft 295 kts 71°
2026-05-08 09:59 39.97098 -82.72981 7645 ft 288 kts 54°
2026-05-08 09:59 39.98039 -82.70642 8448 ft 296 kts 60°
2026-05-08 10:00 39.98829 -82.68153 9154 ft 305 kts 64°
2026-05-08 10:00 39.99520 -82.65515 9798 ft 309 kts 68°
2026-05-08 10:00 40.00107 -82.62806 10377 ft 314 kts 70°
2026-05-08 10:00 40.00621 -82.59991 10956 ft 325 kts 72°
2026-05-08 10:01 40.01082 -82.57046 11552 ft 338 kts 75°
2026-05-08 10:01 40.01497 -82.53961 12151 ft 351 kts 76°
2026-05-08 10:01 40.01874 -82.50751 12763 ft 364 kts 78°
2026-05-08 10:01 40.02216 -82.47427 13386 ft 376 kts 78°
2026-05-08 10:02 40.02536 -82.43986 13990 ft 387 kts 79°
2026-05-08 10:02 40.02844 -82.40463 14545 ft 394 kts 80°
2026-05-08 10:02 40.03124 -82.36881 15109 ft 399 kts 80°
2026-05-08 10:02 40.03405 -82.33242 15692 ft 405 kts 80°
2026-05-08 10:03 40.03687 -82.29561 16270 ft 411 kts 81°
2026-05-08 10:03 40.03939 -82.25817 16882 ft 417 kts 81°
2026-05-08 10:03 40.04180 -82.22016 17492 ft 423 kts 81°
2026-05-08 10:03 40.04426 -82.18165 18122 ft 429 kts 81°
2026-05-08 10:04 40.04667 -82.14307 18689 ft 434 kts 81°
2026-05-08 10:04 40.04920 -82.10369 19233 ft 437 kts 81°
2026-05-08 10:04 40.05217 -82.06402 19796 ft 440 kts 80°
2026-05-08 10:04 40.05505 -82.02404 20378 ft 444 kts 81°
2026-05-08 10:05 40.05776 -81.98376 20969 ft 447 kts 81°
2026-05-08 10:05 40.06061 -81.94324 21563 ft 449 kts 81°
2026-05-08 10:05 40.06331 -81.90250 22171 ft 451 kts 82°
2026-05-08 10:05 40.06585 -81.86161 22790 ft 452 kts 82°
2026-05-08 10:06 40.06848 -81.82065 23420 ft 453 kts 82°
2026-05-08 10:06 40.07121 -81.77970 23988 ft 453 kts 82°
2026-05-08 10:06 40.07402 -81.73878 24524 ft 452 kts 81°
2026-05-08 10:06 40.07679 -81.69794 25057 ft 453 kts 88°
2026-05-08 10:07 40.07464 -81.65732 25572 ft 454 kts 96°
2026-05-08 10:07 40.07092 -81.61569 25979 ft 457 kts 96°
2026-05-08 10:07 40.06747 -81.57485 26359 ft 460 kts 95°
2026-05-08 10:07 40.06432 -81.53312 26714 ft 463 kts 95°
2026-05-08 10:08 40.06119 -81.49107 27018 ft 467 kts 95°
2026-05-08 10:08 40.05809 -81.44873 27328 ft 471 kts 95°
2026-05-08 10:08 40.05514 -81.40605 27640 ft 473 kts 94°
2026-05-08 10:08 40.05249 -81.36312 27962 ft 475 kts 94°
2026-05-08 10:09 40.04985 -81.31998 28273 ft 479 kts 94°
2026-05-08 10:09 40.04690 -81.27619 28569 ft 490 kts 95°
2026-05-08 10:09 40.04376 -81.23139 28894 ft 500 kts 95°
2026-05-08 10:09 40.04063 -81.18590 29317 ft 506 kts 95°
2026-05-08 10:10 40.03746 -81.13989 29738 ft 512 kts 95°
2026-05-08 10:10 40.03435 -81.09332 30160 ft 517 kts 94°
2026-05-08 10:10 40.03122 -81.04639 30519 ft 522 kts 95°
2026-05-08 10:10 40.02810 -80.99901 30882 ft 526 kts 94°
2026-05-08 10:11 40.02485 -80.95132 31242 ft 529 kts 95°
2026-05-08 10:11 40.02137 -80.90343 31615 ft 532 kts 95°
2026-05-08 10:11 40.01792 -80.85522 31991 ft 535 kts 96°
2026-05-08 10:11 40.00993 -80.80867 32269 ft 534 kts 115°
2026-05-08 10:12 39.99168 -80.76709 32541 ft 523 kts 137°
2026-05-08 10:12 39.96643 -80.73396 32965 ft 511 kts 147°
2026-05-08 10:12 39.93994 -80.70324 33464 ft 510 kts 147°
2026-05-08 10:12 39.91378 -80.67163 33913 ft 513 kts 145°
2026-05-08 10:13 39.88829 -80.63908 34282 ft 515 kts 144°
2026-05-08 10:13 39.86316 -80.60577 34635 ft 516 kts 143°
2026-05-08 10:13 39.83802 -80.57207 34938 ft 517 kts 143°
2026-05-08 10:13 39.81356 -80.53858 34984 ft 517 kts 142°
2026-05-08 10:14 39.76386 -80.46974 34997 ft 529 kts 142°
2026-05-08 10:14 39.71265 -80.39896 34991 ft 545 kts 142°
2026-05-08 10:15 39.66007 -80.32655 35008 ft 555 kts 142°
2026-05-08 10:15 39.60677 -80.25306 34994 ft 562 kts 142°
2026-05-08 10:16 39.55266 -80.17940 35002 ft 565 kts 143°
2026-05-08 10:16 39.49838 -80.10611 34994 ft 568 kts 143°
2026-05-08 10:17 39.44376 -80.03200 35006 ft 570 kts 143°
2026-05-08 10:17 39.38918 -79.95750 34999 ft 571 kts 143°
2026-05-08 10:18 39.33469 -79.88332 35011 ft 557 kts 144°
2026-05-08 10:18 39.28271 -79.80954 34777 ft 566 kts 134°
2026-05-08 10:19 39.26383 -79.76398 34269 ft 585 kts 115°
2026-05-08 10:19 39.25284 -79.71426 33853 ft 581 kts 107°
2026-05-08 10:19 39.24335 -79.66388 33450 ft 573 kts 109°
2026-05-08 10:20 39.22118 -79.56642 32580 ft 559 kts 113°
2026-05-08 10:20 39.20910 -79.51907 32141 ft 552 kts 114°
2026-05-08 10:20 39.19685 -79.47250 31715 ft 545 kts 114°
2026-05-08 10:20 39.18453 -79.42656 31293 ft 539 kts 115°
2026-05-08 10:21 39.17233 -79.38101 30872 ft 534 kts 115°
2026-05-08 10:21 39.16035 -79.33603 30465 ft 528 kts 114°
2026-05-08 10:21 39.14832 -79.29165 30047 ft 522 kts 115°
2026-05-08 10:21 39.13609 -79.24769 29560 ft 517 kts 115°
2026-05-08 10:22 39.12398 -79.20425 29088 ft 514 kts 115°
2026-05-08 10:22 39.11216 -79.16159 28631 ft 511 kts 115°
2026-05-08 10:22 39.10025 -79.11860 28179 ft 508 kts 115°
2026-05-08 10:22 39.08848 -79.07584 27722 ft 505 kts 115°
2026-05-08 10:23 39.07707 -79.03308 27280 ft 502 kts 114°
2026-05-08 10:23 39.06570 -78.99074 26845 ft 498 kts 115°
2026-05-08 10:23 39.05411 -78.94888 26416 ft 495 kts 115°
2026-05-08 10:23 39.04254 -78.90728 25984 ft 492 kts 115°
2026-05-08 10:24 39.03104 -78.86591 25573 ft 490 kts 115°
2026-05-08 10:24 39.01960 -78.82480 25163 ft 486 kts 115°
2026-05-08 10:24 39.00823 -78.78399 24762 ft 483 kts 115°
2026-05-08 10:24 38.99695 -78.74350 24358 ft 480 kts 115°
2026-05-08 10:25 38.98572 -78.70316 23960 ft 477 kts 115°
2026-05-08 10:25 38.97462 -78.66322 23565 ft 474 kts 115°
2026-05-08 10:25 38.96359 -78.62342 23099 ft 471 kts 115°
2026-05-08 10:25 38.95259 -78.58383 22631 ft 468 kts 115°
2026-05-08 10:26 38.94162 -78.54463 22174 ft 465 kts 115°
2026-05-08 10:26 38.93069 -78.50572 21726 ft 461 kts 115°
2026-05-08 10:26 38.91979 -78.46711 21293 ft 457 kts 115°
2026-05-08 10:26 38.90896 -78.42897 20862 ft 453 kts 115°
2026-05-08 10:27 38.89823 -78.39121 20429 ft 448 kts 115°
2026-05-08 10:27 38.88780 -78.35447 20013 ft 441 kts 115°
2026-05-08 10:27 38.87762 -78.31762 19595 ft 435 kts 114°
2026-05-08 10:27 38.86776 -78.28122 19186 ft 429 kts 114°
2026-05-08 10:28 38.85784 -78.24544 18784 ft 422 kts 115°
2026-05-08 10:28 38.84777 -78.21024 18376 ft 418 kts 115°
2026-05-08 10:28 38.83780 -78.17545 17934 ft 413 kts 115°
2026-05-08 10:28 38.82790 -78.14105 17470 ft 408 kts 115°
2026-05-08 10:29 38.81811 -78.10711 17024 ft 403 kts 115°
2026-05-08 10:29 38.80858 -78.07361 16581 ft 398 kts 114°
2026-05-08 10:29 38.79945 -78.04075 16148 ft 393 kts 114°
2026-05-08 10:29 38.79029 -78.00794 15721 ft 389 kts 114°
2026-05-08 10:30 38.78115 -77.97555 15300 ft 384 kts 114°
2026-05-08 10:30 38.77209 -77.94352 14893 ft 380 kts 114°
2026-05-08 10:30 38.76307 -77.91183 14476 ft 376 kts 114°
2026-05-08 10:30 38.75411 -77.88064 14068 ft 372 kts 114°
2026-05-08 10:31 38.74515 -77.84976 13644 ft 368 kts 114°
2026-05-08 10:31 38.73627 -77.81917 13184 ft 364 kts 113°
2026-05-08 10:31 38.72781 -77.78916 12735 ft 352 kts 112°
2026-05-08 10:31 38.71965 -77.76006 12275 ft 341 kts 112°
2026-05-08 10:32 38.71176 -77.73197 11839 ft 331 kts 112°
2026-05-08 10:32 38.70405 -77.70460 11405 ft 322 kts 112°
2026-05-08 10:32 38.69655 -77.67791 10981 ft 317 kts 112°
2026-05-08 10:32 38.68912 -77.65166 10570 ft 317 kts 112°
2026-05-08 10:33 38.68159 -77.62514 10156 ft 317 kts 112°
2026-05-08 10:33 38.67405 -77.59859 9732 ft 316 kts 112°
2026-05-08 10:33 38.66651 -77.57219 9283 ft 315 kts 112°
2026-05-08 10:33 38.65895 -77.54592 8840 ft 314 kts 112°
2026-05-08 10:34 38.65134 -77.51983 8436 ft 311 kts 112°
2026-05-08 10:34 38.64377 -77.49409 8108 ft 307 kts 112°
2026-05-08 10:34 38.63627 -77.46878 7780 ft 302 kts 112°
2026-05-08 10:34 38.62880 -77.44383 7453 ft 299 kts 112°
2026-05-08 10:35 38.62150 -77.41913 7132 ft 295 kts 111°
2026-05-08 10:35 38.61438 -77.39456 6810 ft 292 kts 111°
2026-05-08 10:35 38.60737 -77.37072 6498 ft 289 kts 111°
2026-05-08 10:35 38.60029 -77.34681 6167 ft 286 kts 111°
2026-05-08 10:36 38.59347 -77.32309 5828 ft 283 kts 110°
2026-05-08 10:36 38.58669 -77.29967 5549 ft 278 kts 110°
2026-05-08 10:36 38.58000 -77.27694 5517 ft 269 kts 110°
2026-05-08 10:36 38.57347 -77.25467 5524 ft 269 kts 110°
2026-05-08 10:37 38.56685 -77.23199 5528 ft 276 kts 110°
2026-05-08 10:37 38.56009 -77.20884 5519 ft 279 kts 110°
2026-05-08 10:37 38.55333 -77.18568 5518 ft 277 kts 110°
2026-05-08 10:37 38.54674 -77.16309 5513 ft 263 kts 110°
2026-05-08 10:38 38.54144 -77.14156 5480 ft 248 kts 95°
2026-05-08 10:38 38.54442 -77.12021 5138 ft 251 kts 58°
2026-05-08 10:38 38.55638 -77.10479 4794 ft 239 kts 31°
2026-05-08 10:38 38.56956 -77.09296 4602 ft 223 kts 32°
2026-05-08 10:39 38.58178 -77.08143 4351 ft 221 kts 32°
2026-05-08 10:39 38.59439 -77.06962 4052 ft 229 kts 32°
2026-05-08 10:39 38.60703 -77.05765 3743 ft 224 kts 32°
2026-05-08 10:39 38.62006 -77.04745 3525 ft 215 kts 22°
2026-05-08 10:40 38.63360 -77.03918 3402 ft 215 kts 22°
2026-05-08 10:40 38.64707 -77.03061 3389 ft 217 kts 22°
2026-05-08 10:40 38.66089 -77.02355 3358 ft 213 kts
2026-05-08 10:40 38.67059 -77.02386 3373 ft 209 kts 352°
2026-05-08 10:41 38.68530 -77.02517 3158 ft 211 kts 355°
2026-05-08 10:41 38.69985 -77.02603 2852 ft 208 kts 355°
2026-05-08 10:41 38.71425 -77.02711 2544 ft 207 kts 356°
2026-05-08 10:41 38.73341 -77.02831 2162 ft 208 kts 356°
2026-05-08 10:42 38.74317 -77.02898 1954 ft 208 kts 356°
2026-05-08 10:42 38.75760 -77.03003 1668 ft 206 kts 356°
2026-05-08 10:42 38.77179 -77.03115 1618 ft 201 kts 356°
2026-05-08 10:42 38.78452 -77.03234 1182 ft 171 kts 355°
2026-05-08 10:43 38.79574 -77.03344 881 ft 151 kts 355°
2026-05-08 10:43 38.80586 -77.03420 707 ft 145 kts 356°
2026-05-08 10:43 38.81608 -77.03498 543 ft 149 kts 355°
2026-05-08 10:43 38.82669 -77.03583 305 ft 153 kts 356°
2026-05-08 10:44 38.83733 -77.03654 118 ft 154 kts 355°
2026-05-08 10:44 38.84799 -77.03759 20 ft 147 kts 355°
2026-05-08 10:44 38.85475 -77.03824 22 ft 25 kts 329°
2026-05-08 10:44 38.85481 -77.04014 23 ft 11 kts 243°
2026-05-08 10:45 38.85451 -77.04086 24 ft 0 kts 240°